• Join FlightAware (Why Join?)
  • Login
  • US Flag 
05:27AM EST


 

Airport Tracker/Info


-or-


 

Live Flight TrackerFlight Track Log ✈ N812ME ✈ 10-Jan-2012 ✈ KFRG - KDTW

Flight Track Log - Related Links

Times and Time Zones

All times are in EST time to prevent confusion due to time zone crossing. See the N812ME flight status page for this flight to view local times or setup timezone preferences in your user account.

Time Position Orientation Groundspeed Altitude Reporting Facility
EST Latitude Longitude Course Direction KTS MPH feet Rate Location/Type
10:58PM 40.7929 -73.5096 62° Northeast  Level FlightAware Approximate
10:59PM 40.8500 -73.3667 11° North 282 325 7,100  Level New York TRACON
11:00PM 40.9167 -73.3500 308° West 277 319 10,000 2,880 Climbing New York TRACON
11:01PM 40.9667 -73.4333 294° West 280 322 12,900 2,640 Climbing New York TRACON
11:02PM 41.0000 -73.5333 309° West 309 356 15,100 2,220 Climbing New York TRACON
11:03PM 41.0500 -73.6167 302° West 301 346 17,000 660 Climbing New York TRACON
11:05PM 41.1353 -73.7961 304° West 336 387 17,000  Level New York Center
11:06PM 41.1831 -73.8892 297° West 336 387 17,000 900 Level New York Center
11:07PM 41.2278 -74.0069 292° West 330 380 18,800 1,860 Climbing New York Center
11:08PM 41.2600 -74.1133 293° West 330 380 20,800 2,040 Climbing New York Center
11:09PM 41.2964 -74.2283 294° West 342 394 23,000 2,160 Climbing New York Center
11:10PM 41.3383 -74.3522 291° West 350 403 25,100 2,100 Climbing New York Center
11:11PM 41.3742 -74.4783 291° West 362 417 27,200 1,740 Climbing New York Center
11:12PM 41.4156 -74.6192 291° West 362 417 28,700 1,380 Climbing New York Center
11:13PM 41.4547 -74.7542 293° West 379 436 30,000 1,800 Climbing New York Center
11:14PM 41.4942 -74.8811 292° West 379 436 32,300 1,680 Climbing New York Center
11:15PM 41.5314 -75.0053 292° West 374 430 33,400 780 Climbing New York Center
11:16PM 41.5706 -75.1325 292° West 374 430 33,900 240 Climbing New York Center
11:17PM 41.6075 -75.2569 292° West 374 430 34,000  Climbing New York Center
11:18PM 41.6464 -75.3844 292° West 374 430 34,000  Level New York Center
11:19PM 41.6850 -75.5122 291° West 374 430 34,000 -180 Level New York Center
11:20PM 41.7214 -75.6397 292° West 374 430 33,700 -600 Descending New York Center
11:21PM 41.7600 -75.7678 291° West 374 430 32,900 -840 Descending New York Center
11:22PM 41.7981 -75.9014 292° West 379 436 32,100 -480 Descending New York Center
11:23PM 41.8361 -76.0269 290° West 379 436 32,000 -120 Descending New York Center
11:24PM 41.8719 -76.1578 292° West 379 436 31,900  Descending New York Center
11:26PM 41.9467 -76.4089 291° West 386 444 32,000  Climbing Cleveland Center
11:27PM 41.9847 -76.5406 290° West 381 438 32,000  Level Cleveland Center
11:28PM 42.0206 -76.6725 290° West 381 438 32,000  Level Cleveland Center
11:29PM 42.0561 -76.8019 291° West 381 438 32,000  Level Cleveland Center
11:30PM 42.0939 -76.9339 278° West 381 438 32,000  Level Cleveland Center
11:31PM 42.1086 -77.0731 277° West 381 438 32,000  Level Cleveland Center
11:32PM 42.1211 -77.2125 277° West 381 438 32,000  Level Cleveland Center
11:33PM 42.1336 -77.3519 279° West 381 438 32,000  Level Cleveland Center
11:34PM 42.1475 -77.4772 278° West 388 447 32,000  Level Cleveland Center
11:35PM 42.1614 -77.6167 277° West 388 447 32,000  Level Cleveland Center
11:36PM 42.1733 -77.7589 278° West 388 447 32,000  Level Cleveland Center
11:37PM 42.1872 -77.8986 276° West 388 447 32,000  Level Cleveland Center
11:38PM 42.1986 -78.0408 277° West 388 447 32,000  Level Cleveland Center
11:39PM 42.2125 -78.2003 276° West 388 447 32,000  Level Cleveland Center
11:40PM 42.2236 -78.3400 277° West 388 447 32,000  Level Cleveland Center
11:41PM 42.2369 -78.4825 277° West 383 441 32,000  Level Cleveland Center
11:42PM 42.2497 -78.6281 276° West 388 447 32,000  Level Cleveland Center
11:43PM 42.2606 -78.7708 276° West 388 447 32,000  Level Cleveland Center
11:44PM 42.2711 -78.9136 277° West 381 438 32,000  Level Cleveland Center
11:45PM 42.2833 -79.0564 277° West 386 444 32,000  Level Cleveland Center
11:46PM 42.2956 -79.2022 275° West 386 444 32,000  Level Cleveland Center
11:47PM 42.3056 -79.3478 276° West 392 451 32,000  Level Cleveland Center
11:48PM 42.3175 -79.4936 276° West 392 451 32,000  Level Cleveland Center
11:49PM 42.3292 -79.6422 275° West 387 445 32,000  Level Cleveland Center
11:50PM 42.3386 -79.7856 276° West 387 445 32,000  Level Cleveland Center
11:51PM 42.3500 -79.9314 276° West 387 445 32,000 -180 Level Cleveland Center
11:52PM 42.3611 -80.0689 274° West 392 451 31,700 -660 Descending Cleveland Center
11:53PM 42.3681 -80.2122 275° West 397 457 30,700 -1,020 Descending Cleveland Center
11:54PM 42.3786 -80.3694 275° West 411 473 29,700 -1,020 Descending Cleveland Center
11:55PM 42.3894 -80.5297 276° West 406 467 28,700 -900 Descending Cleveland Center
11:56PM 42.4017 -80.6817 274° West 411 473 28,000 -360 Descending Cleveland Center
11:57PM 42.4100 -80.8333 276° West 410 472 28,000  Level Cleveland Center
11:58PM 42.4219 -80.9881 268° West 410 472 28,000 -600 Level Cleveland Center
11:59PM 42.4172 -81.1428 262° West 405 466 26,900 -1,560 Descending Cleveland Center
12:00AM 42.4017 -81.2972 262° West 414 476 24,900 -2,400 Descending Cleveland Center
12:01AM 42.3861 -81.4461 264° West 414 476 22,100 -2,820 Descending Cleveland Center
12:02AM 42.3744 -81.5894 265° West 394 453 19,300 -2,520 Descending Cleveland Center
12:03AM 42.3650 -81.7211 262° West 370 426 17,100 -1,860 Descending Cleveland Center
12:04AM 42.3511 -81.8531 264° West 364 419 15,600 -1,500 Descending Cleveland Center
12:05AM 42.3411 -81.9792 227° Southwest 351 404 14,200 -1,260 Descending Cleveland Center
12:05AM 42.3392 -81.9819 265° West 345 397 14,200 -1,020 Level Cleveland Center
12:06AM 42.3314 -82.0942 266° West 351 404 13,200 -1,320 Descending Cleveland Center
12:06AM 42.3289 -82.1392 249° West 334 384 12,800 -1,200 Descending Cleveland Center
12:07AM 42.3047 -82.2256 264° West 340 391 12,000 -840 Descending Cleveland Center
12:07AM 42.3022 -82.2564 249° West 330 380 12,000  Level Cleveland Center
12:08AM 42.2803 -82.3317 258° West 335 386 12,000  Level Cleveland Center
12:08AM 42.2733 -82.3761 250° West 331 381 12,000  Level Cleveland Center
12:09AM 42.2533 -82.4514 259° West 335 386 12,000  Level Cleveland Center
12:09AM 42.2486 -82.4850 249° West 331 381 12,000 -720 Level Cleveland Center
12:10AM 42.2264 -82.5628 261° West 328 377 11,300 -1,020 Descending Cleveland Center
12:10AM 42.2239 -82.5853 251° West 301 346 11,100 -1,140 Descending Cleveland Center
12:11AM 42.2036 -82.6631 262° West 301 346 10,200 -1,140 Descending Cleveland Center
12:11AM 42.2011 -82.6881 254° West 278 320 10,000 -1,200 Descending Cleveland Center
12:12AM 42.1853 -82.7606 268° West 277 319 9,000 -1,200 Descending Cleveland Center
12:12AM 42.1847 -82.7831 251° West 266 306 8,800 -1,200 Descending Cleveland Center
12:13AM 42.1667 -82.8550 260° West 272 313 7,800 -1,200 Descending Cleveland Center
12:13AM 42.1642 -82.8747 254° West 262 302 7,600 -1,260 Descending Cleveland Center
12:14AM 42.1436 -82.9692 251° West 261 300 6,400 -1,260 Descending Cleveland Center
12:15AM 42.1231 -83.0497 255° West 262 302 5,300 -1,200 Descending Cleveland Center
12:15AM 42.1208 -83.0606 253° West 262 302 5,200 -1,260 Descending Cleveland Center
12:16AM 42.1000 -83.1550 260° West 257 296 3,900 -1,140 Descending Cleveland Center
12:17AM 42.0875 -83.2497 268° West 240 276 3,000 -540 Descending Cleveland Center
12:18AM 42.0858 -83.3194 290° West 182 209 2,900 -300 Descending Cleveland Center
12:19AM 42.1031 -83.3847 326° Northwest 183 211 2,500 -480 Descending Cleveland Center
12:20AM 42.1325 -83.4111 350° North 168 193 2,100 -600 Descending FAA TRACON SMA TRACON (SMA)
12:20AM 42.1467 -83.4144 North 156 180 1,800 -780 Descending FAA TRACON SMA TRACON (SMA)
12:20AM 42.1614 -83.4131 26° Northeast 156 180 1,600 -780 Descending FAA TRACON SMA TRACON (SMA)
12:21AM 42.1744 -83.4044 29° Northeast 158 182 1,300 -780 Descending FAA TRACON SMA TRACON (SMA)
12:21AM 42.1869 -83.3950 28° Northeast 153 176 1,100 -780 Descending FAA TRACON SMA TRACON (SMA)
12:21AM 42.1994 -83.3861 28° Northeast 151 174 800 -480 Descending FAA TRACON SMA TRACON (SMA)
12:22AM 42.2025 -83.3839 360° North 146 168 800  Level FAA TRACON SMA TRACON (SMA)
12:22AM 42.2025 -83.3839 360° North 146 168 800  Level FAA TRACON SMA TRACON (SMA)